Location: Kirchberg
(47.4114°N, 9.0398°E)
Time: 02:57:35
(UTC+00:00)

USA 305 - Pass Details

Date: 03 March 2021
Orbit: 567 x 574 km, 54.0° (Epoch: 13 April)

Event Time Altitude Azimuth Distance (km) Brightness Sun altitude
Rises 19:45:34 0° 295° (WNW) 2,781 7.7 -26.4°
Reaches altitude 10° 19:47:56 10° 303° (WNW) 1,880 6.5 -26.8°
Enters shadow 19:51:05 35° 343° (NNW) 937 4.2 -27.3°
